QPF
0.00 0.00 0.00 0.00 0.02 0.01 0.00 0.00 0.00 0.00 0.00 0.00 0.00 0.00 0.00 0.00 0.03 0.04 0.00 0.00 0.00 0.00 0.00 0.00 0.00 0.00 0.00 0.00 0.00 0.00 0.00 0.00 0.00 0.00 0.00 0.00 0.00 0.00 0.00 0.00 0.00 0.00 0.00 0.00 0.00 0.00 0.00 0.00 0.00
0.00 0.00 0.00 0.00 0.04 0.00 0.00 0.00 0.00 0.00 0.00 0.00 0.00 0.00 0.01 0.00 0.00 0.00 0.00 0.00 0.00 0.00 0.00 0.00 0.00 0.00 0.00 0.00 0.00 0.00 0.00 0.00 0.00 0.00 0.00 0.00 0.01 0.01 0.00 0.00 0.00 0.00 0.00 0.00 0.00 0.01 0.00 0.00 0.01
0.00 0.00 0.00 0.00 0.00 0.00 0.00 0.00 0.00 0.00 0.00 0.00 0.00 0.00 0.00 0.00 0.00 0.00 0.00 0.00 0.00 0.00 0.00 0.00 0.00 0.00 0.00 0.00 0.00 0.00 0.00 0.00 0.00 0.00 0.00 0.00 0.02 0.07 0.01 0.00 0.01 0.01 0.01 0.00 0.00 0.01 0.00 0.00 0.00
0.00 0.01 0.01 0.00 0.00 0.00 0.00 0.00 0.00 0.00 0.00 0.00 0.00 0.00 0.00 0.00 0.00 0.00 0.00 0.00 0.00 0.00 0.00 0.00 0.00 0.00 0.00 0.00 0.00 0.00 0.00 0.00 0.00 0.00 0.00 0.00 0.01 0.03 0.04 0.06 0.05 0.01 0.00 0.01 0.01 0.00 0.00 0.00 0.00
0.00 0.00 0.00 0.00 0.00 0.00 0.00 0.00 0.00 0.00 0.00 0.00 0.00 0.00 0.00 0.00 0.00 0.00 0.00 0.00 0.01 0.00 0.00 0.00 0.00 0.00 0.00 0.00 0.00 0.00 0.00 0.00 0.03 0.00 0.00 0.00 0.04 0.03 0.00 0.01 0.00 0.01 0.01 0.05 0.04 0.00 0.00 0.00 0.00
0.00 0.00 0.00 0.00 0.00 0.00 0.00 0.00 0.00 0.00 0.00 0.00 0.00 0.00 0.00 0.00 0.00 0.00 0.00 0.00 0.00 0.00 0.00 0.00 0.00 0.00 0.00 0.00 0.00 0.00 0.00 0.00 0.00 0.00 0.00 0.00 0.03 0.00 0.00 0.00 0.00 0.02 0.05 0.02 0.01 0.00 0.00 0.00 0.00
0.00 0.00 0.00 0.00 0.00 0.00 0.00 0.00 0.00 0.00 0.00 0.00 0.00 0.00 0.00 0.00 0.00 0.00 0.00 0.00 0.00 0.00 0.00 0.00 0.00 0.00 0.00 0.00 0.00 0.00 0.00 0.00 0.00 0.00 0.03 0.03 0.01 0.01 0.02 0.04 0.00 0.00 0.02 0.01 0.00 0.02 0.01 0.00 0.00
0.00 0.00 0.00 0.00 0.00 0.00 0.00 0.00 0.00 0.00 0.00 0.00 0.00 0.00 0.00 0.00 0.00 0.00 0.00 0.00 0.00 0.00 0.00 0.00 0.00 0.00 0.00 0.00 0.00 0.00 0.00 0.00 0.00 0.00 0.00 0.01 0.00 0.01 0.00 0.06 0.03 0.00 0.00 0.00 0.01 0.00 0.02 0.00 0.00
0.00 0.00 0.00 0.00 0.00 0.00 0.00 0.00 0.00 0.00 0.00 0.00 0.00 0.00 0.00 0.00 0.00 0.00 0.00 0.00 0.00 0.00 0.00 0.00 0.00 0.00 0.01 0.01 0.00 0.00 0.00 0.00 0.00 0.00 0.00 0.00 0.00 0.00 0.00 0.03 0.02 0.01 0.00 0.00 0.00 0.01 0.01 0.00 0.00
0.00 0.00 0.00 0.00 0.00 0.00 0.00 0.00 0.00 0.00 0.00 0.00 0.00 0.00 0.00 0.00 0.00 0.00 0.00 0.00 0.00 0.00 0.00 0.00 0.00 0.00 0.00 0.00 0.02 0.00 0.00 0.00 0.00 0.04 0.04 0.01 0.02 0.01 0.01 0.04 0.03 0.00 0.00 0.00 0.00 0.00 0.01 0.00 0.00
0.00 0.00 0.00 0.00 0.00 0.00 0.00 0.00 0.00 0.00 0.00 0.00 0.00 0.00 0.00 0.00 0.00 0.00 0.00 0.00 0.00 0.00 0.00 0.00 0.00 0.00 0.00 0.03 0.05 0.00 0.00 0.02 0.03 0.05 0.05 0.07 0.06 0.07 0.01 0.00 0.00 0.00 0.00 0.00 0.00 0.00 0.00 0.00 0.00
0.00 0.00 0.00 0.00 0.00 0.00 0.00 0.00 0.00 0.00 0.00 0.00 0.00 0.00 0.00 0.00 0.00 0.00 0.00 0.00 0.00 0.00 0.00 0.00 0.00 0.00 0.00 0.00 0.00 0.00 0.00 0.02 0.00 0.00 0.01 0.02 0.03 0.05 0.01 0.02 0.04 0.04 0.01 0.01 0.02 0.00 0.00 0.00 0.00
0.00 0.00 0.00 0.00 0.00 0.00 0.00 0.00 0.00 0.00 0.00 0.00 0.00 0.00 0.00 0.00 0.00 0.00 0.00 0.00 0.00 0.00 0.00 0.00 0.00 0.00 0.00 0.00 0.01 0.00 0.00 0.00 0.00 0.00 0.00 0.00 0.01 0.05 0.03 0.02 0.05 0.02 0.02 0.02 0.03 0.02 0.02 0.02 0.02
0.00 0.00 0.00 0.00 0.00 0.00 0.00 0.00 0.00 0.00 0.00 0.00 0.00 0.00 0.00 0.00 0.00 0.00 0.00 0.00 0.00 0.00 0.00 0.00 0.00 0.00 0.00 0.00 0.05 0.05 0.01 0.03 0.00 0.00 0.00 0.00 0.00 0.01 0.05 0.03 0.03 0.05 0.03 0.01 0.01 0.08 0.02 0.00 0.00
0.00 0.00 0.00 0.00 0.00 0.00 0.00 0.00 0.00 0.00 0.00 0.00 0.00 0.00 0.00 0.00 0.00 0.00 0.00 0.00 0.00 0.00 0.00 0.00 0.00 0.00 0.00 0.00 0.04 0.10 0.11 0.10 0.08 0.00 0.02 0.01 0.00 0.03 0.06 0.05 0.07 0.06 0.04 0.05 0.08 0.08 0.06 0.02 0.00
0.00 0.00 0.00 0.00 0.00 0.00 0.00 0.00 0.00 0.00 0.00 0.00 0.00 0.00 0.00 0.00 0.00 0.00 0.00 0.00 0.00 0.00 0.00 0.00 0.00 0.00 0.00 0.02 0.07 0.18 0.24 0.22 0.19 0.07 0.09 0.04 0.03 0.02 0.10 0.08 0.04 0.07 0.04 0.04 0.08 0.13 0.09 0.01 0.04
0.00 0.00 0.00 0.00 0.00 0.00 0.00 0.00 0.00 0.00 0.00 0.00 0.00 0.00 0.00 0.00 0.00 0.00 0.00 0.00 0.00 0.00 0.00 0.00 0.00 0.00 0.02 0.12 0.10 0.19 0.46 0.25 0.22 0.15 0.06 0.02 0.02 0.00 0.06 0.08 0.05 0.06 0.02 0.03 0.05 0.13 0.18 0.11 0.10
0.00 0.00 0.00 0.00 0.00 0.00 0.00 0.00 0.00 0.00 0.00 0.00 0.00 0.00 0.00 0.00 0.00 0.00 0.00 0.00 0.00 0.00 0.00 0.00 0.00 0.00 0.04 0.07 0.08 0.12 0.18 0.19 0.15 0.05 0.04 0.03 0.00 0.00 0.00 0.02 0.06 0.06 0.01 0.00 0.02 0.12 0.16 0.09 0.05
0.00 0.00 0.00 0.00 0.00 0.00 0.00 0.00 0.00 0.00 0.00 0.00 0.00 0.00 0.00 0.00 0.00 0.00 0.00 0.00 0.00 0.00 0.00 0.00 0.01 0.00 0.00 0.05 0.13 0.04 0.01 0.05 0.06 0.01 0.01 0.01 0.00 0.00 0.01 0.01 0.07 0.05 0.00 0.00 0.00 0.02 0.10 0.12 0.08
0.00 0.00 0.00 0.00 0.00 0.00 0.00 0.00 0.00 0.00 0.00 0.00 0.00 0.00 0.00 0.00 0.00 0.00 0.00 0.00 0.00 0.00 0.00 0.00 0.00 0.00 0.00 0.04 0.04 0.00 0.00 0.00 0.02 0.01 0.00 0.00 0.00 0.00 0.00 0.00 0.02 0.02 0.00 0.00 0.00 0.00 0.03 0.07 0.08
0.00 0.00 0.00 0.00 0.00 0.00 0.00 0.00 0.00 0.00 0.00 0.00 0.00 0.00 0.00 0.00 0.00 0.00 0.00 0.00 0.00 0.00 0.00 0.00 0.00 0.00 0.00 0.01 0.00 0.00 0.00 0.00 0.02 0.02 0.00 0.00 0.00 0.00 0.00 0.00 0.00 0.00 0.00 0.00 0.00 0.00 0.01 0.03 0.06
0.00 0.00 0.00 0.00 0.00 0.00 0.00 0.00 0.00 0.00 0.00 0.00 0.00 0.00 0.00 0.00 0.00 0.00 0.00 0.00 0.00 0.00 0.00 0.00 0.00 0.00 0.00 0.00 0.00 0.00 0.00 0.01 0.05 0.02 0.00 0.01 0.00 0.00 0.01 0.01 0.01 0.00 0.00 0.00 0.04 0.08 0.09 0.12 0.11
0.00 0.00 0.00 0.00 0.00 0.00 0.00 0.00 0.00 0.00 0.00 0.00 0.00 0.00 0.00 0.00 0.00 0.00 0.00 0.00 0.00 0.00 0.00 0.00 0.00 0.00 0.00 0.00 0.00 0.00 0.00 0.01 0.02 0.03 0.02 0.06 0.05 0.04 0.03 0.04 0.05 0.05 0.05 0.05 0.03 0.10 0.05 0.06 0.09
0.00 0.00 0.00 0.00 0.00 0.00 0.00 0.00 0.00 0.00 0.00 0.00 0.00 0.00 0.00 0.00 0.00 0.00 0.00 0.00 0.00 0.00 0.02 0.01 0.00 0.00 0.00 0.00 0.00 0.00 0.00 0.00 0.02 0.10 0.14 0.10 0.11 0.17 0.25 0.15 0.15 0.07 0.07 0.07 0.04 0.05 0.02 0.02 0.03
0.00 0.00 0.00 0.00 0.00 0.00 0.00 0.00 0.00 0.00 0.00 0.00 0.00 0.00 0.00 0.00 0.00 0.00 0.00 0.00 0.00 0.01 0.12 0.02 0.01 0.01 0.00 0.00 0.00 0.00 0.00 0.00 0.03 0.12 0.10 0.08 0.10 0.10 0.10 0.22 0.22 0.09 0.04 0.03 0.03 0.02 0.04 0.06 0.04
0.00 0.00 0.00 0.00 0.00 0.00 0.00 0.00 0.00 0.00 0.00 0.00 0.00 0.00 0.00 0.00 0.00 0.00 0.00 0.00 0.00 0.00 0.06 0.01 0.01 0.00 0.00 0.00 0.00 0.00 0.00 0.00 0.04 0.03 0.05 0.05 0.03 0.01 0.03 0.09 0.17 0.15 0.06 0.00 0.00 0.00 0.05 0.06 0.09
0.00 0.00 0.00 0.00 0.00 0.00 0.00 0.00 0.00 0.00 0.00 0.00 0.00 0.00 0.00 0.00 0.00 0.00 0.00 0.00 0.00 0.00 0.00 0.00 0.00 0.00 0.00 0.00 0.00 0.00 0.00 0.00 0.02 0.01 0.01 0.00 0.02 0.00 0.00 0.04 0.10 0.08 0.03 0.00 0.01 0.03 0.04 0.04 0.05
0.00 0.00 0.00 0.00 0.00 0.00 0.00 0.00 0.00 0.00 0.00 0.00 0.00 0.00 0.00 0.00 0.00 0.00 0.00 0.00 0.00 0.00 0.00 0.00 0.00 0.00 0.00 0.00 0.00 0.00 0.00 0.01 0.00 0.00 0.00 0.00 0.00 0.00 0.01 0.02 0.08 0.02 0.00 0.00 0.01 0.03 0.03 0.02 0.03
0.00 0.00 0.00 0.00 0.00 0.00 0.00 0.00 0.00 0.00 0.00 0.00 0.00 0.00 0.00 0.00 0.00 0.00 0.00 0.00 0.00 0.00 0.00 0.00 0.00 0.00 0.00 0.00 0.04 0.00 0.00 0.00 0.00 0.00 0.00 0.00 0.00 0.00 0.01 0.02 0.02 0.00 0.00 0.00 0.00 0.00 0.00 0.00 0.03
0.00 0.00 0.00 0.00 0.00 0.00 0.00 0.00 0.00 0.00 0.00 0.00 0.00 0.00 0.00 0.00 0.00 0.00 0.00 0.00 0.00 0.00 0.00 0.00 0.00 0.00 0.00 0.00 0.00 0.00 0.00 0.00 0.00 0.00 0.00 0.00 0.00 0.00 0.01 0.01 0.00 0.00 0.00 0.00 0.00 0.00 0.00 0.00 0.03
MSLP
1008.45 1008.39 1008.09 1006.97 1006.69 1003.82 1001.43 1000.84 1000.36 1000.32 1000.70 1001.18 1001.41 1001.83 1003.38 1003.85 1004.31 1005.84 1005.98 1006.95 1007.89 1009.12 1010.31 1010.84 1011.24 1011.62 1011.89 1012.25 1012.57 1012.88 1013.24 1013.66 1014.02 1014.26 1014.44 1014.60 1014.78 1014.88 1015.05 1015.19 1015.37 1015.44 1015.47 1015.64 1015.75 1015.94 1016.11 1016.33 1016.47
1007.83 1007.33 1006.94 1005.82 1004.05 1001.39 1001.24 1000.94 1000.87 1001.11 1000.90 1001.01 1001.64 1002.14 1003.42 1004.35 1004.75 1005.26 1006.02 1006.89 1007.71 1008.96 1009.95 1010.84 1011.43 1011.82 1012.11 1012.40 1012.68 1013.01 1013.35 1013.69 1013.93 1014.19 1014.51 1014.77 1014.94 1014.96 1015.09 1015.27 1015.43 1015.57 1015.73 1015.77 1015.98 1016.06 1016.31 1016.49 1016.70
1007.75 1006.66 1005.60 1003.84 1001.14 1000.73 1000.63 1000.45 1000.49 1000.83 1000.92 1000.87 1002.12 1002.90 1003.53 1004.69 1005.00 1005.62 1006.40 1006.85 1007.79 1008.59 1009.42 1011.10 1011.71 1012.05 1012.31 1012.60 1012.91 1013.21 1013.53 1013.80 1013.97 1014.23 1014.52 1014.81 1014.98 1015.11 1015.22 1015.35 1015.49 1015.73 1015.86 1016.00 1016.09 1016.18 1016.43 1016.65 1016.83
1006.58 1005.46 1004.55 1001.95 1000.73 1000.49 1000.17 999.97 999.68 1000.18 1000.91 1001.39 1002.34 1003.54 1004.39 1004.65 1004.72 1006.05 1006.43 1006.93 1007.58 1008.10 1009.62 1011.24 1011.75 1012.10 1012.47 1012.76 1013.09 1013.39 1013.70 1013.98 1014.18 1014.36 1014.57 1014.77 1014.94 1015.19 1015.29 1015.44 1015.61 1015.73 1015.95 1016.13 1016.22 1016.35 1016.53 1016.80 1016.97
1004.86 1003.68 1002.08 1000.08 1000.03 999.92 999.89 999.64 999.96 1000.40 1001.24 1001.44 1002.40 1003.71 1004.69 1005.18 1005.72 1006.22 1006.50 1006.76 1007.92 1008.69 1010.09 1011.05 1011.78 1012.23 1012.57 1012.93 1013.16 1013.39 1013.67 1014.01 1014.33 1014.49 1014.67 1014.82 1015.02 1015.21 1015.37 1015.48 1015.62 1015.78 1015.91 1016.30 1016.51 1016.52 1016.63 1016.82 1017.02
1003.08 1001.56 1001.43 999.38 999.37 999.27 999.21 999.18 999.79 1000.25 1001.17 1001.62 1002.47 1003.51 1004.77 1005.59 1006.16 1006.46 1006.52 1007.10 1007.92 1008.68 1010.01 1011.17 1011.79 1012.24 1012.65 1013.06 1013.28 1013.48 1013.69 1014.00 1014.24 1014.49 1014.71 1014.87 1015.06 1015.24 1015.44 1015.55 1015.68 1015.81 1015.99 1016.26 1016.45 1016.66 1016.81 1016.93 1017.02
1002.51 1002.22 1000.67 999.87 999.51 998.99 998.94 999.08 999.42 1000.10 1000.81 1001.45 1001.75 1003.24 1004.99 1005.64 1006.28 1006.53 1006.82 1007.14 1007.79 1008.62 1009.98 1010.91 1011.68 1012.26 1012.67 1013.01 1013.33 1013.50 1013.70 1013.96 1014.16 1014.37 1014.56 1014.72 1014.98 1015.14 1015.33 1015.42 1015.63 1015.81 1016.01 1016.17 1016.38 1016.59 1016.82 1017.03 1017.11
1001.21 1000.65 1000.37 999.47 998.92 998.70 998.62 999.08 999.71 1000.57 1001.61 1001.80 1001.81 1002.65 1004.34 1005.27 1006.22 1006.70 1007.08 1007.28 1007.71 1008.71 1009.63 1010.41 1011.22 1011.79 1012.27 1012.75 1013.17 1013.49 1013.78 1013.92 1014.02 1014.19 1014.40 1014.61 1014.80 1015.00 1015.08 1015.17 1015.43 1015.66 1015.95 1016.11 1016.30 1016.49 1016.76 1016.95 1017.15
1000.48 1000.36 999.49 997.89 997.83 999.48 998.52 1000.09 1000.12 1001.58 1002.23 1001.78 1001.94 1001.92 1003.62 1005.16 1005.99 1006.65 1007.05 1007.44 1007.74 1008.34 1009.11 1010.01 1010.91 1011.67 1011.97 1012.28 1012.83 1013.17 1013.47 1013.78 1014.05 1014.22 1014.24 1014.36 1014.42 1014.42 1014.55 1014.88 1015.14 1015.44 1015.69 1016.00 1016.20 1016.37 1016.66 1016.82 1017.04
999.76 999.64 998.43 997.53 997.62 998.32 998.47 998.67 999.92 1004.31 1003.71 1002.05 1002.40 1003.10 1004.18 1005.10 1005.91 1006.28 1006.80 1007.37 1007.86 1008.44 1008.96 1009.86 1010.62 1011.13 1011.56 1011.71 1012.52 1013.01 1013.11 1013.33 1013.48 1013.63 1013.92 1014.08 1013.89 1013.80 1014.03 1014.56 1015.02 1015.16 1015.42 1015.74 1016.04 1016.23 1016.44 1016.60 1016.60
998.75 998.76 997.57 997.13 997.58 997.58 998.19 998.30 999.17 1000.88 1001.78 1001.15 1001.84 1003.17 1004.13 1004.85 1005.54 1006.09 1006.71 1007.16 1007.96 1008.31 1008.48 1009.46 1009.95 1010.55 1010.97 1011.34 1012.24 1012.36 1012.69 1012.77 1013.00 1013.10 1013.35 1013.35 1013.36 1013.76 1013.83 1013.96 1014.44 1014.89 1015.08 1015.29 1015.63 1015.94 1016.08 1016.05 1016.04
998.26 997.88 997.40 997.05 997.00 997.31 997.25 997.38 997.73 998.59 999.25 999.54 1000.86 1002.28 1003.48 1004.31 1005.02 1005.46 1005.92 1006.54 1007.24 1008.04 1008.34 1008.84 1009.56 1010.20 1010.49 1010.77 1011.42 1011.80 1012.01 1012.23 1012.46 1012.99 1012.99 1013.33 1013.38 1013.49 1013.33 1013.45 1013.83 1014.37 1014.53 1014.67 1014.99 1015.28 1015.35 1015.45 1015.54
998.09 997.66 997.21 996.84 996.63 996.64 997.24 997.33 997.26 997.77 998.19 999.30 1000.52 1001.83 1002.93 1003.67 1004.37 1004.83 1005.39 1005.89 1006.72 1007.48 1008.09 1008.71 1009.50 1010.10 1010.46 1010.77 1010.88 1011.44 1011.80 1012.06 1012.30 1012.69 1013.12 1013.04 1013.22 1013.43 1013.14 1013.21 1013.80 1014.04 1014.12 1014.29 1014.70 1014.92 1015.09 1015.16 1015.43
998.72 998.09 997.72 997.25 996.61 996.20 996.53 996.81 996.74 997.28 997.68 998.84 1000.05 1001.27 1002.26 1002.97 1003.72 1004.22 1004.87 1005.38 1006.26 1007.13 1007.73 1008.26 1008.98 1009.70 1010.27 1010.64 1011.11 1011.51 1011.23 1011.91 1012.07 1012.34 1012.97 1013.16 1013.13 1013.10 1013.36 1013.41 1013.46 1013.82 1013.78 1014.11 1014.44 1014.94 1015.28 1015.05 1014.86
998.94 998.32 997.67 996.77 996.03 995.78 996.25 996.48 996.59 997.40 997.51 998.35 999.62 1000.70 1001.51 1002.20 1002.85 1003.63 1004.40 1005.07 1005.74 1006.50 1007.18 1008.02 1008.92 1009.71 1010.29 1010.79 1011.17 1011.58 1011.43 1011.52 1012.20 1012.28 1012.81 1012.95 1013.11 1013.27 1013.25 1013.48 1013.40 1013.58 1013.90 1014.11 1014.42 1014.77 1014.92 1015.13 1014.64
999.38 998.52 997.41 995.88 995.20 995.67 996.25 996.31 997.18 997.05 997.18 997.66 998.73 999.97 1000.81 1001.53 1002.17 1003.00 1003.88 1004.66 1005.38 1006.01 1006.73 1007.54 1008.45 1009.31 1010.04 1010.57 1010.66 1010.35 1011.28 1011.65 1012.01 1011.89 1012.18 1012.53 1012.77 1012.91 1013.17 1013.48 1013.50 1013.44 1013.81 1014.13 1014.47 1014.76 1014.97 1014.75 1014.74
999.25 998.22 996.87 995.64 995.18 995.75 995.87 995.73 996.11 996.06 996.43 996.88 997.49 998.59 999.77 1000.84 1001.60 1002.29 1003.17 1004.15 1004.83 1005.62 1006.37 1007.18 1007.98 1008.73 1009.36 1009.60 1009.85 1011.16 1009.88 1012.10 1011.79 1011.78 1011.58 1011.76 1012.51 1012.59 1012.84 1013.25 1013.29 1013.32 1013.69 1014.20 1014.54 1014.80 1014.95 1015.07 1015.16
998.22 997.27 996.29 995.38 995.40 995.54 995.59 995.13 995.11 996.25 995.59 995.65 996.22 997.62 998.61 999.63 1000.63 1001.65 1002.60 1003.57 1004.39 1005.22 1005.95 1006.93 1007.62 1008.20 1008.96 1009.75 1010.39 1011.07 1011.47 1011.47 1011.24 1011.11 1011.04 1011.52 1012.05 1012.31 1012.45 1012.89 1013.20 1013.22 1013.67 1014.08 1014.39 1014.75 1014.98 1015.12 1015.15
998.06 997.29 996.28 995.47 995.13 995.09 994.98 995.13 995.22 994.96 994.59 994.43 995.12 995.88 997.46 998.48 999.61 1000.85 1002.04 1003.08 1003.97 1004.90 1005.94 1006.76 1007.43 1007.88 1008.55 1009.76 1010.41 1011.23 1011.32 1011.12 1010.44 1010.10 1010.24 1010.88 1011.38 1011.93 1012.42 1012.79 1013.11 1013.22 1013.48 1014.09 1014.40 1014.63 1014.79 1014.84 1014.84
997.39 996.97 996.58 996.16 995.90 995.73 995.53 995.19 994.69 994.56 994.08 994.15 994.24 994.87 995.72 997.18 998.43 999.85 1001.26 1002.44 1003.37 1004.40 1005.54 1006.59 1007.22 1007.49 1008.40 1008.94 1009.59 1010.07 1010.50 1010.30 1010.03 1009.75 1010.05 1010.38 1011.01 1011.65 1012.02 1012.58 1012.93 1013.33 1013.67 1013.97 1014.20 1014.48 1014.58 1014.59 1014.48
997.08 997.06 996.77 996.46 996.06 995.65 995.51 995.08 994.70 994.40 993.97 993.69 993.50 993.97 994.78 995.76 997.17 998.86 1000.45 1001.60 1002.65 1003.90 1005.21 1006.30 1006.77 1007.55 1008.22 1008.78 1009.75 1010.16 1010.29 1009.96 1009.74 1009.67 1009.87 1010.19 1010.62 1011.21 1011.51 1011.97 1012.56 1013.14 1013.53 1013.78 1013.86 1014.10 1014.46 1014.46 1014.22
996.73 997.01 996.82 996.58 996.36 995.90 995.61 994.81 994.13 993.67 993.44 993.03 993.12 993.63 994.40 995.24 996.48 997.98 999.79 1000.83 1001.94 1003.39 1004.87 1006.05 1006.88 1007.68 1008.35 1008.79 1009.36 1009.28 1009.21 1009.18 1009.17 1009.32 1009.31 1009.62 1009.99 1010.60 1011.16 1011.69 1012.07 1012.63 1013.14 1013.40 1013.52 1013.72 1013.95 1014.32 1014.23
996.67 996.99 996.83 996.59 996.34 996.05 995.65 995.15 994.17 993.79 993.42 992.89 993.25 993.72 994.87 995.41 995.96 997.26 998.94 1000.12 1001.64 1003.11 1004.74 1006.08 1007.38 1008.14 1008.38 1008.80 1008.94 1008.82 1008.77 1008.70 1008.62 1008.75 1009.09 1009.72 1010.03 1010.40 1010.52 1011.06 1011.73 1012.20 1012.55 1012.82 1013.12 1013.23 1013.50 1013.74 1014.10
996.56 996.93 996.97 996.97 996.66 995.97 995.57 995.02 993.89 993.10 993.61 993.97 993.95 994.21 995.12 995.42 995.76 996.59 998.08 999.97 1001.58 1003.17 1004.80 1006.20 1007.49 1008.42 1008.68 1008.54 1008.58 1008.62 1008.64 1008.71 1008.79 1009.37 1009.70 1009.93 1010.22 1010.52 1010.84 1011.17 1011.54 1012.04 1012.28 1012.53 1012.67 1012.85 1013.07 1013.42 1013.72
996.30 996.70 996.85 996.80 996.23 995.47 994.69 994.05 993.33 992.71 993.07 993.49 993.96 994.14 994.89 995.50 995.89 996.71 998.17 999.99 1001.73 1003.80 1005.38 1006.51 1007.39 1008.19 1008.63 1008.50 1008.41 1008.42 1008.54 1008.58 1008.77 1009.37 1009.58 1009.91 1010.23 1010.68 1010.92 1011.32 1011.53 1011.97 1012.13 1012.32 1012.51 1012.62 1012.81 1012.93 1013.17
995.62 995.91 996.07 995.84 995.39 994.39 993.74 993.21 992.32 992.07 992.32 993.72 993.67 993.91 994.98 995.61 996.32 997.30 998.81 1000.44 1002.38 1004.24 1005.52 1006.55 1007.45 1008.15 1008.30 1008.25 1008.27 1008.22 1008.26 1008.43 1008.67 1009.13 1009.34 1009.72 1009.90 1010.49 1010.91 1011.30 1011.80 1011.97 1012.07 1012.20 1012.40 1012.38 1012.49 1012.66 1012.85
995.42 995.17 995.61 995.63 995.34 994.73 993.73 992.76 992.51 992.40 992.42 992.84 993.40 994.55 995.25 996.15 997.22 998.00 999.50 1001.17 1002.64 1004.07 1005.39 1006.21 1007.32 1007.91 1008.24 1008.16 1008.36 1008.19 1008.25 1008.33 1008.58 1008.89 1009.00 1009.57 1009.86 1010.44 1011.15 1011.54 1011.77 1011.84 1011.99 1012.16 1012.37 1012.52 1012.53 1012.51 1012.56
994.46 995.10 995.17 995.27 995.29 994.83 994.03 993.26 993.17 992.58 992.73 993.60 994.55 995.43 996.26 997.15 997.92 999.01 1000.31 1001.60 1002.64 1003.61 1004.93 1005.91 1006.81 1007.45 1007.85 1008.08 1007.78 1008.28 1008.34 1008.51 1008.65 1008.86 1008.98 1009.38 1010.11 1010.43 1011.28 1011.24 1011.47 1011.62 1011.70 1011.92 1011.87 1012.11 1012.30 1012.42 1012.55
993.67 994.24 994.65 994.64 994.68 994.56 994.42 994.29 993.30 994.10 994.46 994.81 995.59 996.30 996.92 997.75 998.68 999.46 1000.42 1001.58 1002.54 1003.44 1004.57 1005.52 1006.21 1006.84 1007.49 1007.31 1007.83 1008.18 1008.13 1008.28 1008.72 1008.89 1009.03 1009.47 1010.08 1010.72 1011.28 1011.26 1011.47 1011.31 1011.52 1011.77 1011.96 1011.88 1011.76 1011.97 1012.21
992.96 993.33 994.09 994.39 994.77 994.76 994.71 994.95 994.91 995.08 995.03 994.83 996.10 996.88 997.34 998.00 998.90 999.73 1000.42 1001.60 1002.42 1003.27 1004.16 1005.00 1005.85 1006.87 1007.69 1007.64 1007.64 1007.99 1007.84 1008.28 1008.60 1009.14 1009.10 1009.57 1009.96 1010.46 1010.83 1010.98 1010.99 1011.08 1011.30 1011.60 1011.86 1011.77 1012.02 1012.13 1012.28
Thickness
5840 5840 5842 5835 5800 5822 5831 5832 5851 5836 5832 5847 5848 5834 5813 5814 5795 5762 5818 5815 5808 5796 5785 5780 5777 5773 5771 5769 5767 5765 5762 5759 5756 5755 5755 5755 5755 5755 5754 5754 5753 5755 5756 5756 5756 5755 5755 5755 5755
5847 5854 5844 5829 5804 5820 5817 5841 5829 5835 5847 5855 5847 5836 5816 5798 5818 5813 5810 5816 5811 5798 5789 5780 5775 5771 5769 5767 5765 5763 5761 5759 5757 5756 5753 5752 5753 5754 5754 5754 5754 5754 5754 5755 5755 5755 5754 5754 5754
5855 5858 5831 5821 5848 5819 5817 5843 5844 5849 5856 5852 5834 5839 5824 5803 5818 5814 5819 5819 5811 5802 5793 5779 5773 5770 5768 5766 5764 5761 5760 5758 5757 5756 5754 5752 5751 5752 5753 5753 5754 5753 5753 5754 5754 5754 5754 5754 5754
5855 5849 5840 5841 5833 5844 5844 5854 5864 5855 5855 5856 5842 5816 5827 5834 5826 5821 5823 5819 5812 5807 5792 5778 5774 5770 5768 5766 5762 5760 5758 5757 5756 5755 5755 5753 5752 5751 5751 5752 5753 5754 5754 5752 5753 5753 5754 5753 5753
5869 5847 5826 5855 5847 5854 5861 5869 5866 5850 5845 5847 5844 5815 5813 5830 5833 5827 5822 5821 5808 5801 5788 5780 5773 5769 5767 5764 5762 5761 5759 5757 5754 5754 5754 5754 5752 5751 5750 5751 5752 5754 5755 5751 5751 5752 5753 5754 5753
5853 5864 5820 5852 5851 5865 5871 5877 5867 5858 5852 5849 5837 5825 5818 5835 5827 5825 5826 5818 5811 5801 5788 5779 5774 5769 5766 5763 5761 5760 5759 5757 5755 5754 5753 5753 5752 5751 5750 5750 5751 5753 5754 5753 5752 5752 5752 5753 5754
5843 5820 5835 5849 5850 5858 5868 5885 5867 5860 5853 5846 5858 5821 5823 5828 5830 5829 5824 5820 5812 5804 5790 5783 5777 5771 5768 5764 5762 5761 5759 5756 5756 5755 5753 5753 5752 5752 5752 5752 5751 5752 5753 5753 5754 5754 5753 5752 5753
5872 5863 5828 5859 5851 5854 5883 5880 5883 5867 5849 5871 5868 5828 5815 5832 5835 5831 5824 5819 5813 5806 5798 5791 5783 5778 5774 5769 5764 5761 5758 5757 5756 5755 5754 5752 5752 5752 5753 5753 5753 5753 5753 5754 5754 5755 5754 5753 5753
5895 5846 5840 5875 5875 5852 5891 5860 5884 5874 5854 5863 5863 5860 5851 5846 5841 5830 5822 5818 5815 5811 5805 5797 5788 5780 5777 5774 5769 5765 5762 5758 5754 5753 5753 5753 5753 5755 5756 5755 5755 5754 5754 5754 5754 5755 5755 5755 5754
5875 5855 5864 5899 5897 5874 5883 5887 5880 5815 5821 5850 5852 5858 5854 5847 5837 5828 5820 5813 5811 5807 5805 5800 5793 5787 5783 5779 5771 5766 5766 5762 5759 5756 5753 5753 5756 5759 5759 5756 5754 5755 5756 5755 5754 5755 5756 5756 5757
5888 5859 5896 5905 5901 5903 5879 5886 5890 5851 5825 5855 5850 5848 5849 5845 5838 5831 5823 5820 5811 5812 5811 5804 5799 5792 5788 5783 5773 5769 5766 5765 5762 5758 5757 5758 5760 5758 5760 5760 5758 5756 5758 5758 5757 5756 5758 5760 5762
5875 5895 5901 5906 5908 5899 5894 5907 5894 5887 5875 5889 5877 5866 5856 5846 5840 5837 5832 5826 5821 5814 5812 5809 5803 5795 5791 5786 5779 5774 5770 5767 5762 5756 5756 5756 5758 5759 5762 5764 5762 5761 5761 5762 5762 5762 5764 5764 5766
5880 5892 5904 5909 5910 5906 5902 5890 5893 5890 5901 5896 5883 5870 5858 5853 5847 5847 5842 5838 5830 5819 5815 5810 5804 5796 5791 5785 5781 5777 5771 5764 5760 5758 5754 5756 5757 5759 5762 5764 5761 5762 5764 5765 5765 5765 5765 5768 5767
5879 5884 5886 5896 5901 5910 5894 5892 5899 5896 5906 5888 5880 5867 5863 5859 5853 5851 5844 5839 5832 5826 5820 5816 5809 5803 5796 5789 5781 5774 5776 5766 5762 5759 5755 5755 5757 5758 5760 5763 5764 5762 5765 5765 5765 5764 5764 5767 5770
5878 5862 5878 5891 5904 5903 5905 5878 5880 5894 5900 5884 5876 5870 5866 5865 5862 5854 5849 5842 5839 5834 5828 5819 5811 5803 5793 5786 5781 5775 5772 5770 5762 5760 5755 5754 5756 5756 5757 5760 5763 5763 5762 5763 5764 5763 5764 5765 5768
5850 5860 5844 5892 5909 5906 5895 5852 5876 5898 5889 5882 5879 5874 5867 5867 5865 5863 5856 5850 5846 5840 5831 5826 5816 5805 5794 5786 5784 5780 5768 5765 5762 5760 5758 5759 5757 5758 5757 5757 5760 5763 5762 5762 5762 5763 5762 5766 5767
5842 5825 5850 5875 5907 5894 5888 5869 5890 5902 5896 5883 5886 5879 5873 5866 5867 5866 5863 5855 5851 5844 5836 5827 5818 5808 5798 5794 5787 5769 5748 5758 5763 5762 5764 5762 5758 5759 5760 5757 5760 5763 5762 5760 5760 5760 5760 5760 5759
5825 5841 5863 5869 5888 5890 5877 5880 5899 5889 5899 5896 5890 5881 5877 5870 5869 5869 5865 5861 5855 5848 5840 5829 5820 5813 5802 5790 5780 5766 5758 5763 5766 5766 5767 5764 5761 5759 5760 5758 5758 5761 5762 5759 5759 5757 5757 5757 5758
5846 5847 5851 5877 5897 5884 5878 5876 5883 5899 5908 5910 5900 5891 5879 5877 5877 5875 5867 5863 5857 5849 5838 5829 5819 5813 5803 5790 5776 5760 5759 5765 5774 5776 5771 5767 5763 5759 5759 5758 5756 5756 5759 5756 5755 5754 5754 5753 5759
5850 5843 5845 5865 5879 5873 5868 5866 5888 5895 5904 5907 5909 5898 5891 5884 5879 5872 5868 5862 5856 5848 5838 5829 5819 5815 5805 5797 5788 5780 5774 5776 5780 5780 5771 5768 5764 5759 5757 5755 5755 5754 5753 5753 5752 5750 5750 5753 5757
5842 5832 5838 5842 5865 5875 5864 5854 5868 5888 5901 5909 5917 5916 5904 5891 5883 5875 5866 5863 5859 5850 5839 5829 5822 5815 5807 5800 5788 5783 5780 5779 5777 5777 5773 5770 5766 5761 5759 5756 5754 5752 5752 5751 5752 5751 5749 5747 5755
5823 5851 5849 5845 5839 5818 5864 5817 5862 5883 5886 5903 5910 5906 5902 5894 5889 5879 5870 5866 5861 5850 5842 5831 5819 5813 5805 5799 5789 5786 5784 5778 5780 5778 5778 5773 5770 5765 5759 5755 5754 5752 5751 5750 5751 5752 5751 5748 5745
5830 5850 5845 5846 5836 5835 5838 5826 5850 5877 5870 5893 5897 5899 5891 5894 5889 5881 5875 5873 5864 5852 5839 5826 5814 5806 5803 5796 5793 5791 5786 5786 5785 5782 5777 5770 5768 5764 5762 5758 5754 5752 5752 5752 5750 5750 5749 5748 5744
5854 5837 5836 5835 5830 5800 5828 5828 5838 5864 5861 5869 5880 5889 5881 5887 5894 5891 5880 5873 5859 5850 5834 5821 5807 5798 5796 5795 5791 5787 5785 5781 5779 5771 5767 5764 5762 5759 5756 5752 5751 5750 5749 5748 5749 5750 5749 5746 5744
5838 5819 5784 5782 5792 5792 5847 5836 5847 5882 5880 5879 5880 5881 5881 5885 5890 5886 5873 5863 5851 5834 5821 5814 5803 5793 5790 5789 5787 5783 5782 5781 5779 5770 5764 5760 5757 5752 5750 5747 5741 5742 5745 5746 5746 5747 5746 5746 5745
5825 5824 5795 5768 5787 5815 5859 5828 5857 5897 5900 5878 5891 5891 5882 5881 5882 5876 5866 5857 5843 5829 5818 5809 5799 5789 5786 5785 5782 5781 5782 5781 5779 5771 5767 5762 5758 5752 5747 5743 5739 5739 5742 5743 5743 5744 5745 5745 5744
5817 5810 5839 5813 5824 5812 5837 5861 5877 5886 5884 5888 5884 5873 5875 5872 5868 5865 5858 5848 5839 5829 5817 5810 5797 5789 5782 5777 5768 5774 5778 5781 5775 5774 5772 5763 5758 5751 5743 5739 5737 5739 5739 5739 5738 5736 5738 5740 5741
5831 5841 5806 5816 5777 5778 5817 5835 5824 5856 5867 5864 5859 5860 5861 5861 5858 5855 5849 5842 5837 5831 5820 5811 5800 5787 5779 5765 5767 5768 5773 5776 5774 5773 5769 5763 5756 5751 5740 5740 5738 5738 5737 5736 5739 5736 5736 5735 5735
5826 5814 5820 5830 5825 5797 5796 5810 5857 5840 5845 5845 5852 5854 5854 5852 5849 5849 5846 5841 5836 5828 5818 5810 5802 5790 5774 5765 5758 5767 5774 5775 5772 5769 5768 5763 5756 5748 5739 5740 5737 5737 5735 5734 5732 5734 5736 5733 5733
5844 5829 5824 5800 5793 5815 5813 5810 5848 5853 5856 5853 5848 5848 5851 5850 5847 5847 5844 5837 5831 5824 5817 5810 5802 5789 5778 5775 5774 5772 5777 5772 5769 5763 5765 5760 5755 5750 5744 5741 5740 5739 5736 5733 5730 5732 5731 5730 5727